FJI224A YSSY-NFFN

Flight info

Callsign FJI224A
Flight time 3h 24m
Altitude 41000
Route 3358S15112E DCT TESAT G595 SOTKI DCT 30S160E DCT UBLIN A579 TUTMU
Aircraft A359/H-SDE2E3GHIJ3J4J5LM1ORWXY/LB1D1

Departure

Time 2026-05-06 18:44
Airport Sydney Kingsford Smith International Airport (YSSY)

Arrival

Time 2026-05-06 22:08
Airport Nadi International Airport (NFFN)
Time Latitude Longitude Altitude Speed Heading
2026-05-06 18:30 -33.93827 151.16841 36 ft 0 kts 74°
2026-05-06 18:31 -33.93830 151.16831 36 ft 4 kts 73°
2026-05-06 18:31 -33.93838 151.16800 33 ft 4 kts 72°
2026-05-06 18:32 -33.93845 151.16769 36 ft 4 kts 87°
2026-05-06 18:32 -33.93841 151.16745 36 ft 4 kts 159°
2026-05-06 18:32 -33.93848 151.16747 35 ft 4 kts 163°
2026-05-06 18:32 -33.93874 151.16756 36 ft 4 kts 164°
2026-05-06 18:33 -33.93895 151.16763 36 ft 3 kts 164°
2026-05-06 18:33 -33.93921 151.16772 36 ft 4 kts 164°
2026-05-06 18:33 -33.93946 151.16780 36 ft 3 kts 164°
2026-05-06 18:33 -33.93949 151.16781 36 ft 0 kts 164°
2026-05-06 18:36 -33.93950 151.16782 36 ft 1 kts 164°
2026-05-06 18:36 -33.93985 151.16794 36 ft 8 kts 164°
2026-05-06 18:37 -33.94044 151.16819 36 ft 9 kts 143°
2026-05-06 18:37 -33.94048 151.16893 36 ft 11 kts 77°
2026-05-06 18:37 -33.94023 151.17005 36 ft 16 kts 74°
2026-05-06 18:37 -33.93990 151.17139 36 ft 14 kts 74°
2026-05-06 18:38 -33.93998 151.17226 35 ft 10 kts 139°
2026-05-06 18:38 -33.94077 151.17253 35 ft 14 kts 166°
2026-05-06 18:38 -33.94185 151.17279 35 ft 17 kts 168°
2026-05-06 18:38 -33.94304 151.17311 36 ft 19 kts 168°
2026-05-06 18:39 -33.94453 151.17350 37 ft 24 kts 168°
2026-05-06 18:39 -33.94617 151.17392 37 ft 25 kts 168°
2026-05-06 18:39 -33.94792 151.17438 36 ft 27 kts 168°
2026-05-06 18:40 -33.95174 151.17536 35 ft 29 kts 167°
2026-05-06 18:40 -33.95377 151.17590 36 ft 30 kts 168°
2026-05-06 18:40 -33.95585 151.17643 36 ft 31 kts 168°
2026-05-06 18:40 -33.95797 151.17698 36 ft 32 kts 168°
2026-05-06 18:41 -33.96013 151.17754 36 ft 32 kts 168°
2026-05-06 18:41 -33.96232 151.17811 36 ft 33 kts 167°
2026-05-06 18:41 -33.96387 151.17852 36 ft 13 kts 166°
2026-05-06 18:41 -33.96431 151.17920 36 ft 12 kts 98°
2026-05-06 18:42 -33.96419 151.18022 36 ft 10 kts 73°
2026-05-06 18:42 -33.96361 151.18047 36 ft 11 kts 347°
2026-05-06 18:42 -33.96331 151.18039 36 ft 0 kts 347°
2026-05-06 18:43 -33.96310 151.18033 36 ft 21 kts 347°
2026-05-06 18:43 -33.95906 151.17929 35 ft 95 kts 347°
2026-05-06 18:43 -33.95051 151.17703 34 ft 155 kts 347°
2026-05-06 18:43 -33.93871 151.17422 392 ft 177 kts 345°
2026-05-06 18:44 -33.92700 151.17167 1349 ft 166 kts 345°
2026-05-06 18:44 -33.91532 151.16929 1891 ft 177 kts 342°
2026-05-06 18:44 -33.90242 151.16729 2155 ft 199 kts 349°
2026-05-06 18:44 -33.88782 151.17024 2328 ft 232 kts 19°
2026-05-06 18:45 -33.87541 151.18418 2518 ft 261 kts 61°
2026-05-06 18:45 -33.87046 151.20569 2906 ft 275 kts 87°
2026-05-06 18:45 -33.87092 151.22899 3466 ft 281 kts 98°
2026-05-06 18:45 -33.87260 151.24445 3925 ft 281 kts 101°
2026-05-06 18:46 -33.87664 151.27554 4885 ft 282 kts 99°
2026-05-06 18:46 -33.87924 151.29894 5466 ft 285 kts 97°
2026-05-06 18:46 -33.88121 151.32292 6112 ft 288 kts 95°
2026-05-06 18:46 -33.88262 151.34716 6660 ft 295 kts 94°
2026-05-06 18:47 -33.88368 151.37184 7147 ft 301 kts 92°
2026-05-06 18:47 -33.88455 151.39704 7772 ft 302 kts 92°
2026-05-06 18:47 -33.88535 151.42243 8414 ft 305 kts 91°
2026-05-06 18:47 -33.88615 151.44801 9069 ft 307 kts 91°
2026-05-06 18:48 -33.88698 151.47381 9690 ft 310 kts 91°
2026-05-06 18:48 -33.88784 151.49989 10231 ft 316 kts 91°
2026-05-06 18:48 -33.88874 151.52689 10499 ft 331 kts 91°
2026-05-06 18:48 -33.88970 151.55518 10740 ft 345 kts 91°
2026-05-06 18:49 -33.89069 151.58457 10981 ft 359 kts 91°
2026-05-06 18:49 -33.89173 151.61496 11339 ft 367 kts 91°
2026-05-06 18:49 -33.89279 151.64584 11810 ft 372 kts 90°
2026-05-06 18:49 -33.89386 151.67704 12328 ft 375 kts 90°
2026-05-06 18:50 -33.89492 151.70847 12822 ft 378 kts 90°
2026-05-06 18:50 -33.89598 151.74027 13317 ft 381 kts 90°
2026-05-06 18:50 -33.89704 151.77229 13794 ft 385 kts 90°
2026-05-06 18:50 -33.89809 151.80457 14227 ft 388 kts 90°
2026-05-06 18:51 -33.89914 151.83711 14672 ft 391 kts 90°
2026-05-06 18:51 -33.90019 151.86995 15105 ft 394 kts 90°
2026-05-06 18:51 -33.90124 151.90295 15539 ft 396 kts 90°
2026-05-06 18:51 -33.90230 151.93627 16007 ft 399 kts 89°
2026-05-06 18:52 -33.90335 151.96965 16481 ft 401 kts 89°
2026-05-06 18:52 -33.90438 152.00283 16919 ft 403 kts 89°
2026-05-06 18:52 -33.90543 152.03715 17365 ft 406 kts 89°
2026-05-06 18:52 -33.90646 152.07121 17795 ft 409 kts 89°
2026-05-06 18:53 -33.90734 152.10516 18211 ft 412 kts 88°
2026-05-06 18:53 -33.90772 152.13974 18579 ft 415 kts 87°
2026-05-06 18:53 -33.90783 152.17455 18926 ft 418 kts 87°
2026-05-06 18:53 -33.90788 152.20971 19264 ft 421 kts 87°
2026-05-06 18:54 -33.90795 152.24506 19606 ft 424 kts 87°
2026-05-06 18:54 -33.90807 152.28076 19951 ft 428 kts 87°
2026-05-06 18:54 -33.90824 152.31670 20288 ft 431 kts 87°
2026-05-06 18:54 -33.90845 152.35292 20635 ft 434 kts 87°
2026-05-06 18:55 -33.90866 152.38937 20969 ft 437 kts 87°
2026-05-06 18:55 -33.90887 152.42604 21315 ft 440 kts 87°
2026-05-06 18:55 -33.90908 152.46296 21640 ft 442 kts 87°
2026-05-06 18:55 -33.90927 152.50011 21969 ft 445 kts 87°
2026-05-06 18:56 -33.90945 152.53754 22293 ft 448 kts 87°
2026-05-06 18:56 -33.90962 152.57518 22637 ft 451 kts 87°
2026-05-06 18:56 -33.90977 152.61305 22948 ft 454 kts 87°
2026-05-06 18:56 -33.90991 152.65114 23254 ft 456 kts 87°
2026-05-06 18:57 -33.91004 152.68890 23556 ft 459 kts 87°
2026-05-06 18:57 -33.91016 152.72746 23810 ft 462 kts 87°
2026-05-06 18:57 -33.91027 152.76615 24071 ft 464 kts 86°
2026-05-06 18:57 -33.91037 152.80508 24323 ft 466 kts 86°
2026-05-06 18:58 -33.91046 152.84417 24577 ft 468 kts 86°
2026-05-06 18:58 -33.91053 152.88340 24852 ft 469 kts 86°
2026-05-06 18:58 -33.91060 152.92277 25099 ft 471 kts 86°
2026-05-06 18:58 -33.91065 152.96237 25342 ft 474 kts 86°
2026-05-06 18:59 -33.91068 153.00222 25599 ft 476 kts 86°
2026-05-06 18:59 -33.91070 153.04209 25850 ft 478 kts 86°
2026-05-06 18:59 -33.91071 153.08223 26112 ft 480 kts 86°
2026-05-06 18:59 -33.91072 153.12253 26381 ft 482 kts 86°
2026-05-06 19:00 -33.91071 153.16306 26668 ft 484 kts 86°
2026-05-06 19:00 -33.91068 153.20358 26930 ft 486 kts 86°
2026-05-06 19:00 -33.91063 153.24393 27208 ft 488 kts 86°
2026-05-06 19:00 -33.91059 153.27163 27408 ft 490 kts 86°
2026-05-06 19:01 -33.91049 153.32611 27812 ft 493 kts 86°
2026-05-06 19:01 -33.91040 153.36753 28104 ft 496 kts 85°
2026-05-06 19:01 -33.91030 153.40915 28409 ft 498 kts 85°
2026-05-06 19:01 -33.91019 153.45094 28716 ft 500 kts 85°
2026-05-06 19:02 -33.91006 153.49294 29050 ft 503 kts 85°
2026-05-06 19:02 -33.90992 153.53518 29357 ft 505 kts 85°
2026-05-06 19:02 -33.90975 153.57762 29664 ft 508 kts 85°
2026-05-06 19:02 -33.90958 153.62028 29977 ft 511 kts 85°
2026-05-06 19:03 -33.90939 153.66318 30256 ft 514 kts 85°
2026-05-06 19:03 -33.90918 153.70632 30538 ft 516 kts 85°
2026-05-06 19:03 -33.90904 153.73494 30737 ft 518 kts 85°
2026-05-06 19:03 -33.90881 153.77838 31038 ft 520 kts 85°
2026-05-06 19:04 -33.90857 153.82209 31321 ft 522 kts 85°
2026-05-06 19:04 -33.90830 153.86581 31621 ft 524 kts 85°
2026-05-06 19:04 -33.90801 153.90981 31895 ft 527 kts 85°
2026-05-06 19:04 -33.90771 153.95412 32175 ft 529 kts 85°
2026-05-06 19:05 -33.90739 153.99851 32441 ft 531 kts 85°
2026-05-06 19:05 -33.90706 154.04309 32699 ft 534 kts 85°
2026-05-06 19:05 -33.90670 154.08782 32965 ft 535 kts 85°
2026-05-06 19:05 -33.90634 154.13274 33229 ft 537 kts 85°
2026-05-06 19:06 -33.90595 154.17783 33458 ft 539 kts 85°
2026-05-06 19:06 -33.90555 154.22248 33700 ft 541 kts 85°
2026-05-06 19:06 -33.90513 154.26788 33933 ft 543 kts 85°
2026-05-06 19:06 -33.90468 154.31342 34122 ft 545 kts 85°
2026-05-06 19:07 -33.90422 154.35915 34289 ft 547 kts 85°
2026-05-06 19:07 -33.90375 154.40503 34488 ft 549 kts 85°
2026-05-06 19:07 -33.90325 154.45106 34708 ft 550 kts 85°
2026-05-06 19:07 -33.90274 154.49711 34968 ft 550 kts 85°
2026-05-06 19:08 -33.90160 154.54311 35197 ft 549 kts 82°
2026-05-06 19:08 -33.89835 154.58885 35441 ft 548 kts 79°
2026-05-06 19:08 -33.89404 154.63430 35679 ft 547 kts 79°
2026-05-06 19:08 -33.88942 154.67992 35917 ft 548 kts 79°
2026-05-06 19:09 -33.88492 154.72535 36217 ft 547 kts 79°
2026-05-06 19:09 -33.88061 154.77094 36464 ft 548 kts 79°
2026-05-06 19:09 -33.87651 154.81654 36701 ft 549 kts 80°
2026-05-06 19:09 -33.87257 154.86170 36918 ft 549 kts 80°
2026-05-06 19:10 -33.86866 154.90743 37170 ft 550 kts 80°
2026-05-06 19:10 -33.86476 154.95320 37400 ft 550 kts 80°
2026-05-06 19:10 -33.86085 154.99900 37623 ft 550 kts 80°
2026-05-06 19:10 -33.85693 155.04466 37909 ft 548 kts 80°
2026-05-06 19:11 -33.85297 155.09026 38139 ft 548 kts 80°
2026-05-06 19:11 -33.84639 155.13534 38291 ft 544 kts 70°
2026-05-06 19:11 -33.83442 155.17819 38486 ft 536 kts 60°
2026-05-06 19:11 -33.81704 155.21737 38654 ft 526 kts 49°
2026-05-06 19:12 -33.79515 155.25212 38814 ft 519 kts 43°
2026-05-06 19:12 -33.77173 155.28496 38985 ft 516 kts 41°
2026-05-06 19:12 -33.74777 155.31700 39165 ft 515 kts 40°
2026-05-06 19:12 -33.72356 155.34875 39336 ft 514 kts 39°
2026-05-06 19:13 -33.69932 155.38040 39505 ft 514 kts 40°
2026-05-06 19:13 -33.67511 155.41213 39613 ft 515 kts 40°
2026-05-06 19:13 -33.65125 155.44354 39724 ft 516 kts 40°
2026-05-06 19:13 -33.62707 155.47551 39861 ft 516 kts 40°
2026-05-06 19:14 -33.60301 155.50741 39999 ft 516 kts 40°
2026-05-06 19:14 -33.57886 155.53945 40151 ft 516 kts 40°
2026-05-06 19:14 -33.55475 155.57142 40270 ft 516 kts 40°
2026-05-06 19:14 -33.53067 155.60334 40402 ft 516 kts 40°
2026-05-06 19:15 -33.50658 155.63523 40526 ft 516 kts 40°
2026-05-06 19:15 -33.48250 155.66707 40662 ft 515 kts 40°
2026-05-06 19:15 -33.45841 155.69889 40782 ft 515 kts 40°
2026-05-06 19:15 -33.43435 155.73063 40895 ft 515 kts 40°
2026-05-06 19:16 -33.41021 155.76245 40957 ft 517 kts 40°
2026-05-06 19:16 -33.36200 155.82587 40980 ft 519 kts 40°
2026-05-06 19:17 -33.31343 155.88971 40980 ft 519 kts 40°
2026-05-06 19:17 -33.26476 155.95358 40972 ft 520 kts 40°
2026-05-06 19:18 -33.21592 156.01752 40985 ft 521 kts 40°
2026-05-06 19:18 -33.16711 156.08132 40987 ft 521 kts 40°
2026-05-06 19:19 -33.11820 156.14515 40969 ft 521 kts 39°
2026-05-06 19:19 -33.06951 156.20855 40995 ft 522 kts 39°
2026-05-06 19:20 -33.02034 156.27246 40996 ft 523 kts 39°
2026-05-06 19:20 -32.97116 156.33630 40993 ft 523 kts 39°
2026-05-06 19:21 -32.92189 156.40015 40972 ft 523 kts 39°
2026-05-06 19:21 -32.87282 156.46360 40997 ft 525 kts 39°
2026-05-06 19:22 -32.82330 156.52751 41004 ft 525 kts 39°
2026-05-06 19:22 -32.77374 156.59138 40999 ft 525 kts 39°
2026-05-06 19:23 -32.72413 156.65521 40974 ft 525 kts 39°
2026-05-06 19:23 -32.67444 156.71902 41005 ft 527 kts 39°
2026-05-06 19:24 -32.62459 156.78291 41008 ft 528 kts 39°
2026-05-06 19:24 -32.57472 156.84673 41009 ft 528 kts 39°
2026-05-06 19:25 -32.52477 156.91055 40980 ft 527 kts 38°
2026-05-06 19:25 -32.47473 156.97436 41012 ft 529 kts 38°
2026-05-06 19:26 -32.42484 157.03784 41015 ft 530 kts 38°
2026-05-06 19:26 -32.37463 157.10165 41015 ft 530 kts 38°
2026-05-06 19:27 -32.32439 157.16539 40981 ft 530 kts 38°
2026-05-06 19:27 -32.27397 157.22922 41013 ft 531 kts 38°
2026-05-06 19:28 -32.22347 157.29304 41021 ft 531 kts 38°
2026-05-06 19:28 -32.17293 157.35682 41021 ft 531 kts 38°
2026-05-06 19:29 -32.12271 157.42009 40991 ft 531 kts 38°
2026-05-06 19:29 -32.07207 157.48375 41020 ft 532 kts 37°
2026-05-06 19:30 -32.02138 157.54737 41021 ft 533 kts 38°
2026-05-06 19:30 -31.97058 157.61102 41024 ft 533 kts 38°
2026-05-06 19:31 -31.91970 157.67468 41031 ft 533 kts 38°
2026-05-06 19:31 -31.84360 157.76967 41029 ft 534 kts 37°
2026-05-06 19:32 -31.79248 157.83334 41028 ft 534 kts 37°
2026-05-06 19:32 -31.74137 157.89690 41028 ft 534 kts 37°
2026-05-06 19:33 -31.69030 157.96029 41009 ft 534 kts 37°
2026-05-06 19:33 -31.63941 158.02334 41030 ft 536 kts 37°
2026-05-06 19:34 -31.58810 158.08680 41030 ft 536 kts 37°
2026-05-06 19:34 -31.53676 158.15020 41032 ft 536 kts 37°
2026-05-06 19:35 -31.48538 158.21356 41024 ft 536 kts 37°
2026-05-06 19:35 -31.43395 158.27685 41034 ft 535 kts 37°
2026-05-06 19:36 -31.38255 158.34001 41033 ft 535 kts 37°
2026-05-06 19:36 -31.33107 158.40314 41037 ft 535 kts 37°
2026-05-06 19:37 -31.27997 158.46572 41000 ft 535 kts 37°
2026-05-06 19:37 -31.23708 158.51813 41038 ft 537 kts 37°
2026-05-06 19:38 -31.17673 158.59178 41037 ft 537 kts 37°
2026-05-06 19:38 -31.12502 158.65479 41037 ft 537 kts 37°
2026-05-06 19:39 -31.07332 158.71767 41039 ft 537 kts 37°
2026-05-06 19:39 -31.02154 158.78053 41039 ft 538 kts 36°
2026-05-06 19:40 -30.96970 158.84337 41039 ft 538 kts 36°
2026-05-06 19:40 -30.91813 158.90577 41040 ft 538 kts 36°
2026-05-06 19:41 -30.86620 158.96852 41040 ft 538 kts 36°
2026-05-06 19:41 -30.81413 159.03131 41039 ft 539 kts 36°
2026-05-06 19:42 -30.76200 159.09405 41042 ft 539 kts 36°
2026-05-06 19:42 -30.71013 159.15642 41042 ft 539 kts 36°
2026-05-06 19:43 -30.65799 159.21901 41042 ft 539 kts 36°
2026-05-06 19:43 -30.60569 159.28168 41038 ft 540 kts 36°
2026-05-06 19:44 -30.55319 159.34444 41049 ft 542 kts 36°
2026-05-06 19:44 -30.50070 159.40714 41045 ft 542 kts 36°
2026-05-06 19:45 -30.44819 159.46975 41050 ft 542 kts 36°
2026-05-06 19:45 -30.39558 159.53238 41019 ft 542 kts 36°
2026-05-06 19:46 -30.34283 159.59503 41044 ft 544 kts 36°
2026-05-06 19:46 -30.29031 159.65734 41045 ft 544 kts 36°
2026-05-06 19:47 -30.23737 159.72005 41044 ft 544 kts 36°
2026-05-06 19:47 -30.18449 159.78260 41018 ft 544 kts 35°
2026-05-06 19:48 -30.13157 159.84506 41044 ft 544 kts 35°
2026-05-06 19:48 -30.07850 159.90760 41043 ft 545 kts 36°
2026-05-06 19:49 -30.02545 159.97003 41052 ft 544 kts 36°
2026-05-06 19:49 -29.97509 160.03560 41041 ft 552 kts 41°
2026-05-06 19:50 -29.92650 160.10447 41042 ft 554 kts 42°
2026-05-06 19:50 -29.87825 160.17372 41045 ft 554 kts 42°
2026-05-06 19:51 -29.82995 160.24284 41048 ft 554 kts 42°
2026-05-06 19:51 -29.78149 160.31188 41051 ft 554 kts 42°
2026-05-06 19:52 -29.74111 160.36926 41011 ft 554 kts 42°
2026-05-06 19:52 -29.68455 160.44946 41051 ft 556 kts 42°
2026-05-06 19:53 -29.64398 160.50691 41051 ft 556 kts 42°
2026-05-06 19:53 -29.59521 160.57587 41050 ft 556 kts 42°
2026-05-06 19:54 -29.54640 160.64478 41050 ft 556 kts 42°
2026-05-06 19:54 -29.49756 160.71361 41042 ft 556 kts 42°
2026-05-06 19:55 -29.44863 160.78245 41053 ft 557 kts 42°
2026-05-06 19:55 -29.39963 160.85128 41052 ft 557 kts 42°
2026-05-06 19:56 -29.35055 160.92008 41056 ft 557 kts 42°
2026-05-06 19:56 -29.30178 160.98835 41056 ft 557 kts 42°
2026-05-06 19:57 -29.25264 161.05703 41056 ft 557 kts 42°
2026-05-06 19:57 -29.20352 161.12556 41059 ft 557 kts 42°
2026-05-06 19:58 -29.15433 161.19407 41059 ft 557 kts 42°
2026-05-06 19:58 -29.10514 161.26246 41056 ft 557 kts 42°
2026-05-06 19:59 -29.05592 161.33079 41031 ft 556 kts 42°
2026-05-06 19:59 -29.00699 161.39859 41059 ft 556 kts 42°
2026-05-06 20:00 -28.95769 161.46680 41062 ft 556 kts 42°
2026-05-06 20:00 -28.90839 161.53490 41064 ft 556 kts 42°
2026-05-06 20:01 -28.85907 161.60291 41062 ft 556 kts 42°
2026-05-06 20:01 -28.80967 161.67091 41049 ft 557 kts 42°
2026-05-06 20:02 -28.75991 161.73924 41063 ft 562 kts 42°
2026-05-06 20:02 -28.70968 161.80812 41060 ft 566 kts 42°
2026-05-06 20:03 -28.65919 161.87731 41065 ft 569 kts 42°
2026-05-06 20:03 -28.60849 161.94670 41060 ft 569 kts 42°
2026-05-06 20:04 -28.55783 162.01590 41064 ft 569 kts 42°
2026-05-06 20:04 -28.50734 162.08473 41064 ft 570 kts 42°
2026-05-06 20:05 -28.45651 162.15390 41070 ft 570 kts 42°
2026-05-06 20:05 -28.40565 162.22300 41070 ft 570 kts 42°
2026-05-06 20:06 -28.35472 162.29207 41048 ft 570 kts 43°
2026-05-06 20:06 -28.30375 162.36109 41070 ft 570 kts 43°
2026-05-06 20:07 -28.25271 162.43010 41066 ft 571 kts 43°
2026-05-06 20:07 -28.20165 162.49905 41067 ft 570 kts 43°
2026-05-06 20:08 -28.15057 162.56788 41073 ft 570 kts 43°
2026-05-06 20:08 -28.09978 162.63620 41063 ft 570 kts 43°
2026-05-06 20:09 -28.04859 162.70495 41075 ft 571 kts 43°
2026-05-06 20:09 -27.99730 162.77375 41072 ft 571 kts 43°
2026-05-06 20:10 -27.94600 162.84243 41071 ft 571 kts 43°
2026-05-06 20:10 -27.89506 162.91054 41071 ft 571 kts 43°
2026-05-06 20:11 -27.84373 162.97905 41070 ft 571 kts 43°
2026-05-06 20:11 -27.79627 163.05197 41075 ft 576 kts 49°
2026-05-06 20:12 -27.75070 163.12650 41078 ft 577 kts 50°
2026-05-06 20:12 -27.70534 163.20142 41078 ft 577 kts 50°
2026-05-06 20:13 -27.65998 163.27603 41078 ft 577 kts 50°
2026-05-06 20:13 -27.61474 163.35007 41077 ft 577 kts 50°
2026-05-06 20:14 -27.56921 163.42444 41084 ft 576 kts 50°
2026-05-06 20:14 -27.52361 163.49880 41085 ft 576 kts 50°
2026-05-06 20:15 -27.47800 163.57305 41086 ft 576 kts 50°
2026-05-06 20:15 -27.43231 163.64731 41088 ft 576 kts 50°
2026-05-06 20:16 -27.38656 163.72149 41075 ft 576 kts 50°
2026-05-06 20:16 -27.34081 163.79560 41091 ft 576 kts 50°
2026-05-06 20:17 -27.29538 163.86909 41087 ft 576 kts 50°
2026-05-06 20:17 -27.24961 163.94297 41088 ft 576 kts 50°
2026-05-06 20:18 -27.20373 164.01690 41091 ft 576 kts 50°
2026-05-06 20:18 -27.15780 164.09079 41088 ft 577 kts 50°
2026-05-06 20:19 -27.11187 164.16455 41091 ft 577 kts 50°
2026-05-06 20:19 -27.06589 164.23830 41091 ft 576 kts 50°
2026-05-06 20:20 -27.01987 164.31198 41082 ft 576 kts 50°
2026-05-06 20:20 -26.97383 164.38557 41092 ft 577 kts 50°
2026-05-06 20:21 -26.92798 164.45871 41092 ft 578 kts 50°
2026-05-06 20:21 -26.88169 164.53246 41092 ft 578 kts 50°
2026-05-06 20:22 -26.83538 164.60611 41094 ft 578 kts 50°
2026-05-06 20:22 -26.78901 164.67974 41095 ft 578 kts 50°
2026-05-06 20:23 -26.74259 164.75331 41098 ft 578 kts 50°
2026-05-06 20:23 -26.69643 164.82636 41100 ft 578 kts 50°
2026-05-06 20:24 -26.64996 164.89980 41082 ft 578 kts 51°
2026-05-06 20:24 -26.60348 164.97312 41096 ft 577 kts 50°
2026-05-06 20:25 -26.55700 165.04633 41100 ft 577 kts 50°
2026-05-06 20:25 -26.51051 165.11943 41101 ft 577 kts 51°
2026-05-06 20:26 -26.46401 165.19243 41100 ft 577 kts 51°
2026-05-06 20:26 -26.41778 165.26488 41099 ft 577 kts 51°
2026-05-06 20:27 -26.37118 165.33780 41095 ft 576 kts 51°
2026-05-06 20:27 -26.32462 165.41054 41097 ft 576 kts 51°
2026-05-06 20:28 -26.27803 165.48322 41097 ft 576 kts 51°
2026-05-06 20:28 -26.23142 165.55582 41099 ft 576 kts 51°
2026-05-06 20:29 -26.18474 165.62839 41102 ft 576 kts 51°
2026-05-06 20:29 -26.13807 165.70083 41092 ft 575 kts 51°
2026-05-06 20:30 -26.06801 165.80938 41110 ft 575 kts 51°
2026-05-06 20:31 -26.02158 165.88119 41105 ft 575 kts 51°
2026-05-06 20:31 -25.97486 165.95333 41108 ft 575 kts 51°
2026-05-06 20:32 -25.92807 166.02547 41107 ft 575 kts 51°
2026-05-06 20:32 -25.88121 166.09758 41088 ft 575 kts 51°
2026-05-06 20:33 -25.83439 166.16951 41107 ft 574 kts 51°
2026-05-06 20:33 -25.78754 166.24141 41111 ft 574 kts 51°
2026-05-06 20:34 -25.74068 166.31321 41102 ft 574 kts 51°
2026-05-06 20:34 -25.69373 166.38503 41105 ft 574 kts 51°
2026-05-06 20:35 -25.64712 166.45623 41113 ft 574 kts 51°
2026-05-06 20:35 -25.60011 166.52790 41111 ft 574 kts 51°
2026-05-06 20:36 -25.55315 166.59940 41106 ft 573 kts 51°
2026-05-06 20:36 -25.50619 166.67081 41115 ft 573 kts 51°
2026-05-06 20:37 -25.45919 166.74217 41113 ft 573 kts 51°
2026-05-06 20:37 -25.41213 166.81349 41107 ft 573 kts 51°
2026-05-06 20:38 -25.36505 166.88473 41107 ft 573 kts 51°
2026-05-06 20:38 -25.31830 166.95538 41108 ft 572 kts 51°
2026-05-06 20:39 -25.27133 167.02626 41107 ft 572 kts 51°
2026-05-06 20:39 -25.22426 167.09718 41108 ft 572 kts 51°
2026-05-06 20:40 -25.18507 167.15615 41109 ft 572 kts 51°
2026-05-06 20:40 -25.13791 167.22701 41107 ft 572 kts 51°
2026-05-06 20:41 -25.08309 167.30924 41092 ft 572 kts 51°
2026-05-06 20:41 -25.04360 167.36841 41105 ft 571 kts 51°
2026-05-06 20:42 -24.99669 167.43858 41109 ft 571 kts 51°
2026-05-06 20:42 -24.94954 167.50900 41105 ft 571 kts 51°
2026-05-06 20:43 -24.90233 167.57942 41107 ft 571 kts 51°
2026-05-06 20:43 -24.85509 167.64977 41105 ft 571 kts 51°
2026-05-06 20:44 -24.80812 167.71962 41091 ft 571 kts 52°
2026-05-06 20:44 -24.76085 167.78986 41102 ft 570 kts 51°
2026-05-06 20:45 -24.71354 167.85996 41105 ft 570 kts 51°
2026-05-06 20:45 -24.66626 167.92991 41105 ft 570 kts 51°
2026-05-06 20:46 -24.61892 167.99986 41107 ft 570 kts 52°
2026-05-06 20:46 -24.57158 168.06972 41105 ft 571 kts 51°
2026-05-06 20:47 -24.52441 168.13923 41094 ft 570 kts 52°
2026-05-06 20:47 -24.47701 168.20899 41102 ft 569 kts 52°
2026-05-06 20:48 -24.42957 168.27871 41106 ft 569 kts 51°
2026-05-06 20:48 -24.38210 168.34836 41105 ft 569 kts 52°
2026-05-06 20:49 -24.33464 168.41789 41101 ft 570 kts 52°
2026-05-06 20:49 -24.28738 168.48705 41102 ft 570 kts 52°
2026-05-06 20:50 -24.23985 168.55649 41105 ft 570 kts 51°
2026-05-06 20:50 -24.19227 168.62592 41102 ft 569 kts 51°
2026-05-06 20:51 -24.14459 168.69540 41110 ft 569 kts 51°
2026-05-06 20:51 -24.09692 168.76475 41100 ft 570 kts 52°
2026-05-06 20:52 -24.04914 168.83417 41099 ft 571 kts 52°
2026-05-06 20:52 -24.00168 168.90304 41099 ft 571 kts 51°
2026-05-06 20:53 -23.95385 168.97233 41096 ft 570 kts 52°
2026-05-06 20:53 -23.90605 169.04149 41099 ft 570 kts 51°
2026-05-06 20:54 -23.85821 169.11062 41099 ft 570 kts 51°
2026-05-06 20:54 -23.81060 169.17932 41099 ft 570 kts 51°
2026-05-06 20:55 -23.76272 169.24831 41097 ft 570 kts 51°
2026-05-06 20:55 -23.71487 169.31717 41094 ft 570 kts 51°
2026-05-06 20:56 -23.66692 169.38606 41096 ft 569 kts 51°
2026-05-06 20:56 -23.61907 169.45474 41096 ft 568 kts 51°
2026-05-06 20:57 -23.57116 169.52339 41094 ft 569 kts 51°
2026-05-06 20:57 -23.52320 169.59203 41094 ft 569 kts 51°
2026-05-06 20:58 -23.47550 169.66020 41094 ft 569 kts 51°
2026-05-06 20:58 -23.42748 169.72874 41094 ft 569 kts 51°
2026-05-06 20:59 -23.37947 169.79716 41103 ft 568 kts 51°
2026-05-06 20:59 -23.33148 169.86547 41091 ft 568 kts 51°
2026-05-06 21:00 -23.28341 169.93381 41088 ft 568 kts 51°
2026-05-06 21:00 -23.23527 170.00215 41092 ft 568 kts 51°
2026-05-06 21:01 -23.18714 170.07038 41093 ft 568 kts 51°
2026-05-06 21:01 -23.13932 170.13808 41088 ft 568 kts 51°
2026-05-06 21:02 -23.09113 170.20621 41091 ft 568 kts 51°
2026-05-06 21:02 -23.04304 170.27413 41091 ft 567 kts 51°
2026-05-06 21:03 -22.99495 170.34195 41088 ft 567 kts 51°
2026-05-06 21:03 -22.94684 170.40971 41089 ft 567 kts 51°
2026-05-06 21:04 -22.89862 170.47752 41092 ft 567 kts 51°
2026-05-06 21:04 -22.85049 170.54514 41097 ft 567 kts 51°
2026-05-06 21:05 -22.80228 170.61277 41083 ft 566 kts 51°
2026-05-06 21:05 -22.75408 170.68030 41086 ft 566 kts 51°
2026-05-06 21:06 -22.70618 170.74733 41081 ft 565 kts 51°
2026-05-06 21:06 -22.65799 170.81467 41083 ft 565 kts 51°
2026-05-06 21:07 -22.60977 170.88197 41085 ft 565 kts 51°
2026-05-06 21:07 -22.56152 170.94922 41081 ft 566 kts 51°
2026-05-06 21:08 -22.51321 171.01648 41073 ft 566 kts 51°
2026-05-06 21:08 -22.46490 171.08364 41077 ft 565 kts 51°
2026-05-06 21:09 -22.41662 171.15068 41075 ft 565 kts 51°
2026-05-06 21:09 -22.36831 171.21768 41075 ft 565 kts 51°
2026-05-06 21:10 -22.32004 171.28454 41088 ft 565 kts 51°
2026-05-06 21:10 -22.27168 171.35142 41075 ft 566 kts 51°
2026-05-06 21:11 -22.22343 171.41809 41055 ft 566 kts 51°
2026-05-06 21:11 -22.17489 171.48508 41068 ft 565 kts 51°
2026-05-06 21:12 -22.12645 171.55183 41068 ft 564 kts 51°
2026-05-06 21:12 -22.07827 171.61816 41065 ft 564 kts 51°
2026-05-06 21:13 -22.02977 171.68479 41069 ft 565 kts 51°
2026-05-06 21:13 -21.98117 171.75146 41069 ft 566 kts 51°
2026-05-06 21:14 -21.93253 171.81811 41070 ft 566 kts 51°
2026-05-06 21:14 -21.88384 171.88477 41068 ft 564 kts 51°
2026-05-06 21:15 -21.83528 171.95116 41068 ft 564 kts 51°
2026-05-06 21:15 -21.78705 172.01702 41063 ft 564 kts 51°
2026-05-06 21:16 -21.73846 172.08330 41066 ft 564 kts 51°
2026-05-06 21:16 -21.68970 172.14972 41061 ft 565 kts 51°
2026-05-06 21:17 -21.64096 172.21603 41062 ft 565 kts 51°
2026-05-06 21:17 -21.59228 172.28218 41059 ft 564 kts 51°
2026-05-06 21:18 -21.54387 172.34788 41057 ft 563 kts 51°
2026-05-06 21:18 -21.49518 172.41389 41070 ft 563 kts 51°
2026-05-06 21:19 -21.44650 172.47980 41060 ft 563 kts 51°
2026-05-06 21:19 -21.39771 172.54579 41061 ft 564 kts 51°
2026-05-06 21:20 -21.34894 172.61167 41061 ft 564 kts 51°
2026-05-06 21:20 -21.30010 172.67755 41062 ft 564 kts 51°
2026-05-06 21:21 -21.25128 172.74335 41062 ft 564 kts 51°
2026-05-06 21:21 -21.20274 172.80868 41055 ft 564 kts 51°
2026-05-06 21:22 -21.15372 172.87459 41058 ft 564 kts 51°
2026-05-06 21:22 -21.10476 172.94033 41058 ft 564 kts 51°
2026-05-06 21:23 -21.05578 173.00602 41060 ft 564 kts 51°
2026-05-06 21:23 -21.00709 173.07125 41056 ft 564 kts 51°
2026-05-06 21:24 -20.95816 173.13673 41056 ft 562 kts 51°
2026-05-06 21:24 -20.90923 173.20212 41057 ft 562 kts 51°
2026-05-06 21:25 -20.86027 173.26748 41050 ft 563 kts 51°
2026-05-06 21:25 -20.81127 173.33282 41051 ft 563 kts 51°
2026-05-06 21:26 -20.76248 173.39780 41053 ft 563 kts 51°
2026-05-06 21:26 -20.71347 173.46300 41047 ft 563 kts 51°
2026-05-06 21:27 -20.66480 173.52768 41046 ft 562 kts 51°
2026-05-06 21:27 -20.61585 173.59266 41042 ft 561 kts 51°
2026-05-06 21:28 -20.56707 173.65733 41043 ft 561 kts 51°
2026-05-06 21:28 -20.52637 173.71124 41043 ft 561 kts 51°
2026-05-06 21:29 -20.47730 173.77615 41043 ft 561 kts 51°
2026-05-06 21:29 -20.42831 173.84090 41043 ft 561 kts 51°
2026-05-06 21:30 -20.37927 173.90564 41049 ft 561 kts 51°
2026-05-06 21:30 -20.33018 173.97037 41039 ft 560 kts 51°
2026-05-06 21:31 -20.28116 174.03493 41045 ft 560 kts 51°
2026-05-06 21:31 -20.23215 174.09942 41040 ft 560 kts 51°
2026-05-06 21:32 -20.18346 174.16341 41032 ft 560 kts 51°
2026-05-06 21:32 -20.10994 174.25990 41039 ft 560 kts 51°
2026-05-06 21:33 -20.06080 174.32431 41047 ft 560 kts 51°
2026-05-06 21:33 -20.01165 174.38865 41036 ft 559 kts 51°
2026-05-06 21:34 -19.96290 174.45240 41034 ft 558 kts 51°
2026-05-06 21:34 -19.91386 174.51646 41030 ft 558 kts 51°
2026-05-06 21:35 -19.86489 174.58037 41032 ft 558 kts 51°
2026-05-06 21:35 -19.81581 174.64434 41036 ft 558 kts 51°
2026-05-06 21:36 -19.76678 174.70819 41038 ft 558 kts 51°
2026-05-06 21:36 -19.71793 174.77173 41009 ft 558 kts 51°
2026-05-06 21:37 -19.66877 174.83560 41025 ft 557 kts 51°
2026-05-06 21:37 -19.61971 174.89927 41030 ft 557 kts 51°
2026-05-06 21:38 -19.57066 174.96286 41022 ft 557 kts 51°
2026-05-06 21:38 -19.52190 175.02601 41023 ft 557 kts 51°
2026-05-06 21:39 -19.47276 175.08959 41025 ft 557 kts 51°
2026-05-06 21:39 -19.42361 175.15311 41021 ft 557 kts 50°
2026-05-06 21:40 -19.37443 175.21661 41016 ft 556 kts 51°
2026-05-06 21:40 -19.32533 175.27994 41022 ft 555 kts 50°
2026-05-06 21:41 -19.27662 175.34269 41019 ft 555 kts 50°
2026-05-06 21:41 -19.22761 175.40584 41021 ft 555 kts 50°
2026-05-06 21:42 -19.17861 175.46881 40866 ft 550 kts 50°
2026-05-06 21:42 -19.15436 175.49994 40381 ft 546 kts 51°
2026-05-06 21:42 -19.13012 175.53105 39605 ft 549 kts 51°
2026-05-06 21:43 -19.10574 175.56233 38848 ft 552 kts 51°
2026-05-06 21:43 -19.08133 175.59364 38094 ft 553 kts 51°
2026-05-06 21:43 -19.05692 175.62495 37389 ft 551 kts 51°
2026-05-06 21:43 -19.03448 175.65371 36786 ft 550 kts 51°
2026-05-06 21:44 -19.01077 175.68410 36120 ft 549 kts 51°
2026-05-06 21:44 -18.98649 175.71520 35425 ft 550 kts 51°
2026-05-06 21:44 -18.96212 175.74638 34794 ft 548 kts 51°
2026-05-06 21:44 -18.93788 175.77738 34270 ft 545 kts 51°
2026-05-06 21:45 -18.91381 175.80816 33707 ft 542 kts 51°
2026-05-06 21:45 -18.88984 175.83878 33137 ft 538 kts 51°
2026-05-06 21:45 -18.86603 175.86919 32602 ft 534 kts 51°
2026-05-06 21:45 -18.84242 175.89933 32087 ft 531 kts 51°
2026-05-06 21:46 -18.81897 175.92925 31568 ft 527 kts 51°
2026-05-06 21:46 -18.79569 175.95895 31060 ft 524 kts 50°
2026-05-06 21:46 -18.77252 175.98849 30550 ft 521 kts 50°
2026-05-06 21:46 -18.74947 176.01786 30028 ft 518 kts 50°
2026-05-06 21:47 -18.72681 176.04672 29450 ft 515 kts 50°
2026-05-06 21:47 -18.70409 176.07569 28953 ft 510 kts 50°
2026-05-06 21:47 -18.68149 176.10439 28429 ft 506 kts 50°
2026-05-06 21:47 -18.65910 176.13279 27924 ft 501 kts 50°
2026-05-06 21:48 -18.63684 176.16102 27425 ft 497 kts 50°
2026-05-06 21:48 -18.61483 176.18893 26930 ft 493 kts 50°
2026-05-06 21:48 -18.59298 176.21664 26428 ft 489 kts 51°
2026-05-06 21:48 -18.57128 176.24414 25926 ft 485 kts 51°
2026-05-06 21:49 -18.55005 176.27104 25430 ft 482 kts 51°
2026-05-06 21:49 -18.52871 176.29808 24937 ft 478 kts 51°
2026-05-06 21:49 -18.50765 176.32475 24418 ft 475 kts 51°
2026-05-06 21:49 -18.48653 176.35147 23936 ft 472 kts 51°
2026-05-06 21:50 -18.46558 176.37799 23391 ft 469 kts 51°
2026-05-06 21:50 -18.44481 176.40425 22854 ft 464 kts 51°
2026-05-06 21:50 -18.42420 176.43030 22351 ft 459 kts 51°
2026-05-06 21:50 -18.40387 176.45599 21858 ft 454 kts 51°
2026-05-06 21:51 -18.38378 176.48139 21336 ft 449 kts 51°
2026-05-06 21:51 -18.36391 176.50648 20869 ft 443 kts 51°
2026-05-06 21:51 -18.34446 176.53101 20388 ft 438 kts 51°
2026-05-06 21:51 -18.32500 176.55557 19906 ft 434 kts 51°
2026-05-06 21:52 -18.30575 176.57984 19427 ft 430 kts 52°
2026-05-06 21:52 -18.28666 176.60391 18951 ft 426 kts 52°
2026-05-06 21:52 -18.26775 176.62774 18479 ft 422 kts 52°
2026-05-06 21:52 -18.24901 176.65135 17970 ft 418 kts 52°
2026-05-06 21:53 -18.23047 176.67470 17483 ft 413 kts 52°
2026-05-06 21:53 -18.21217 176.69774 17009 ft 408 kts 52°
2026-05-06 21:53 -18.19411 176.72046 16560 ft 402 kts 52°
2026-05-06 21:53 -18.17623 176.74296 16105 ft 397 kts 52°
2026-05-06 21:54 -18.15862 176.76511 15648 ft 392 kts 52°
2026-05-06 21:54 -18.14124 176.78696 15212 ft 387 kts 52°
2026-05-06 21:54 -18.12405 176.80857 14767 ft 383 kts 52°
2026-05-06 21:54 -18.10740 176.82970 14332 ft 378 kts 53°
2026-05-06 21:55 -18.09422 176.85312 13891 ft 369 kts 70°
2026-05-06 21:55 -18.08542 176.87828 13420 ft 363 kts 73°
2026-05-06 21:55 -18.07744 176.90333 12987 ft 358 kts 74°
2026-05-06 21:55 -18.06958 176.92801 12570 ft 354 kts 73°
2026-05-06 21:56 -18.06175 176.95241 12163 ft 350 kts 73°
2026-05-06 21:56 -18.05401 176.97649 11745 ft 346 kts 73°
2026-05-06 21:56 -18.04631 177.00034 11321 ft 343 kts 73°
2026-05-06 21:56 -18.03868 177.02395 11002 ft 336 kts 73°
2026-05-06 21:57 -18.03139 177.04640 10875 ft 322 kts 72°
2026-05-06 21:57 -18.02431 177.06816 10751 ft 308 kts 72°
2026-05-06 21:57 -18.01751 177.08910 10550 ft 300 kts 73°
2026-05-06 21:57 -18.01081 177.10976 10229 ft 298 kts 72°
2026-05-06 21:58 -18.00417 177.13022 9931 ft 294 kts 72°
2026-05-06 21:58 -17.99756 177.15056 9603 ft 295 kts 72°
2026-05-06 21:58 -17.99091 177.17099 9291 ft 294 kts 72°
2026-05-06 21:58 -17.98431 177.19125 8971 ft 292 kts 72°
2026-05-06 21:59 -17.97774 177.21142 8690 ft 290 kts 72°
2026-05-06 21:59 -17.97123 177.23140 8375 ft 288 kts 72°
2026-05-06 21:59 -17.96478 177.25120 8084 ft 286 kts 72°
2026-05-06 21:59 -17.95844 177.27063 7769 ft 284 kts 72°
2026-05-06 22:00 -17.95118 177.28986 7466 ft 282 kts 66°
2026-05-06 22:00 -17.94291 177.30845 7169 ft 280 kts 65°
2026-05-06 22:00 -17.93451 177.32683 6867 ft 278 kts 66°
2026-05-06 22:00 -17.92618 177.34508 6563 ft 277 kts 65°
2026-05-06 22:01 -17.91787 177.36334 6254 ft 277 kts 65°
2026-05-06 22:01 -17.90959 177.38146 5928 ft 274 kts 65°
2026-05-06 22:01 -17.90144 177.39941 5659 ft 270 kts 66°
2026-05-06 22:01 -17.89355 177.41678 5508 ft 257 kts 67°
2026-05-06 22:02 -17.88600 177.43336 5368 ft 248 kts 66°
2026-05-06 22:02 -17.87863 177.44961 5133 ft 245 kts 67°
2026-05-06 22:02 -17.87130 177.46575 4875 ft 244 kts 67°
2026-05-06 22:02 -17.86390 177.48149 4622 ft 244 kts 64°
2026-05-06 22:03 -17.85314 177.49532 4428 ft 246 kts 46°
2026-05-06 22:03 -17.83998 177.50659 3904 ft 243 kts 40°
2026-05-06 22:03 -17.82679 177.51695 3685 ft 228 kts 41°
2026-05-06 22:03 -17.81434 177.52668 3289 ft 222 kts 41°
2026-05-06 22:04 -17.80101 177.53494 2796 ft 223 kts 27°
2026-05-06 22:04 -17.78649 177.53921 2636 ft 208 kts 11°
2026-05-06 22:04 -17.77288 177.53955 2577 ft 191 kts 359°
2026-05-06 22:04 -17.76014 177.53683 2394 ft 185 kts 345°
2026-05-06 22:05 -17.74863 177.53141 2239 ft 178 kts 333°
2026-05-06 22:05 -17.73884 177.52371 2004 ft 176 kts 318°
2026-05-06 22:05 -17.73096 177.51395 1749 ft 173 kts 304°
2026-05-06 22:05 -17.72564 177.50313 1660 ft 159 kts 290°
2026-05-06 22:06 -17.72273 177.49231 1451 ft 153 kts 277°
2026-05-06 22:06 -17.72284 177.48122 1158 ft 151 kts 259°
2026-05-06 22:06 -17.72640 177.47116 949 ft 146 kts 236°
2026-05-06 22:06 -17.73285 177.46285 594 ft 145 kts 221°
2026-05-06 22:07 -17.73995 177.45552 322 ft 140 kts 216°
2026-05-06 22:07 -17.74748 177.44933 113 ft 136 kts 212°
2026-05-06 22:07 -17.75486 177.44348 39 ft 128 kts 213°
2026-05-06 22:07 -17.76058 177.43894 39 ft 65 kts 218°
2026-05-06 22:08 -17.76369 177.43641 39 ft 53 kts 217°
2026-05-06 22:08 -17.76643 177.43419 41 ft 47 kts 218°
2026-05-06 22:08 -17.76856 177.43247 39 ft 34 kts 217°
2026-05-06 22:08 -17.77039 177.43099 39 ft 32 kts 217°
2026-05-06 22:09 -17.77201 177.42968 39 ft 20 kts 218°
2026-05-06 22:09 -17.77261 177.42871 38 ft 13 kts 240°
2026-05-06 22:09 -17.77288 177.42864 38 ft 2 kts 155°
2026-05-06 22:09 -17.77291 177.42874 38 ft 2 kts 103°
2026-05-06 22:10 -17.77274 177.42906 38 ft 11 kts 52°
2026-05-06 22:10 -17.77180 177.42986 39 ft 24 kts 38°
2026-05-06 22:10 -17.77034 177.43104 39 ft 28 kts 37°
2026-05-06 22:10 -17.76874 177.43233 40 ft 30 kts 37°
2026-05-06 22:11 -17.76690 177.43382 41 ft 36 kts 38°
2026-05-06 22:11 -17.76471 177.43558 39 ft 43 kts 38°
2026-05-06 22:11 -17.76226 177.43756 38 ft 47 kts 38°
2026-05-06 22:11 -17.75967 177.43965 39 ft 47 kts 37°
2026-05-06 22:12 -17.75708 177.44174 39 ft 47 kts 37°
2026-05-06 22:12 -17.75447 177.44384 36 ft 42 kts 37°
2026-05-06 22:12 -17.75253 177.44541 36 ft 31 kts 37°
2026-05-06 22:12 -17.75125 177.44648 37 ft 14 kts 50°
2026-05-06 22:13 -17.75123 177.44742 39 ft 14 kts 105°
2026-05-06 22:13 -17.75148 177.44846 39 ft 16 kts 104°
2026-05-06 22:13 -17.75201 177.44926 38 ft 12 kts 157°
2026-05-06 22:13 -17.75239 177.44939 38 ft 5 kts 150°
2026-05-06 22:14 -17.75249 177.44953 38 ft 0 kts 109°
2026-05-06 22:14 -17.75249 177.44958 38 ft 1 kts 102°
2026-05-06 22:14 -17.75253 177.44975 38 ft 4 kts 104°
2026-05-06 22:14 -17.75258 177.44994 38 ft 1 kts 104°
2026-05-06 22:15 -17.75259 177.45001 38 ft 1 kts 103°
2026-05-06 22:15 -17.75260 177.45002 38 ft 0 kts 103°